GEFSNGP_con_prob3kmehi_114.txt.gz
EHI
0 0 0 0 0 0 0 0 0 0 0 0 0 0 0 0 0 1 2 1 0 0 0 0 0 1 2 3 2 1 0 0 0 1 2 3 3 3 2 1 0 0 0 0
0 0 0 0 0 0 0 0 0 0 0 0 1 1 1 1 1 2 2 1 0 0 0 0 1 2 2 3 2 1 0 0 0 1 2 3 3 3 3 1 0 0 0 0
0 0 0 0 0 0 0 0 0 0 0 1 2 3 3 3 3 3 3 2 0 0 0 0 2 4 4 3 2 1 0 0 0 0 1 2 3 3 3 2 1 0 0 0
0 0 0 0 0 0 1 1 1 0 0 1 3 5 4 3 2 2 3 3 2 1 1 1 2 4 4 3 2 1 0 0 0 0 0 1 2 3 3 3 2 1 0 0
0 0 0 0 0 0 1 2 1 0 0 1 3 3 3 2 2 2 2 3 2 2 2 2 2 3 3 2 1 0 0 0 0 0 0 0 1 2 3 3 3 1 0 0
0 0 0 0 0 0 0 1 1 0 0 1 1 1 1 1 1 1 1 2 2 1 1 1 1 2 2 1 0 0 0 0 0 0 0 0 0 1 3 3 2 1 0 0
0 0 0 0 0 0 0 0 0 0 0 0 0 0 0 0 0 0 0 2 2 1 0 0 1 2 2 1 0 0 0 0 0 0 0 0 0 1 2 2 1 1 0 0
0 0 0 0 0 0 0 0 0 0 0 0 0 0 0 0 0 0 0 1 1 1 0 0 1 2 2 1 0 0 0 0 0 0 0 0 0 0 1 1 0 0 0 0
0 0 0 0 0 0 0 0 0 0 0 0 0 0 0 0 0 0 0 0 0 0 0 0 0 1 1 1 0 0 0 0 0 0 0 0 0 0 0 0 0 0 0 0
0 0 0 0 0 0 0 0 0 0 0 0 0 0 0 0 0 0 0 0 0 0 0 0 0 0 0 0 0 0 0 0 0 0 0 0 0 0 0 0 0 0 0 0
0 0 0 0 0 0 0 0 0 0 0 0 0 0 0 0 0 0 0 0 0 0 0 0 0 0 0 0 0 0 0 0 0 0 0 0 0 0 0 0 0 0 0 0
0 0 0 0 0 0 0 0 0 0 0 0 0 0 0 0 0 0 0 0 0 0 0 0 0 0 0 0 0 0 0 0 0 0 0 0 0 0 0 0 0 0 0 0
0 0 0 0 0 0 0 0 0 0 0 0 0 0 0 0 0 0 0 0 0 0 0 0 0 0 0 0 0 0 0 0 0 0 0 0 0 0 0 0 0 0 0 0
0 0 0 0 0 0 0 0 0 0 0 0 0 0 0 0 0 0 0 0 0 0 0 0 0 0 0 0 0 0 0 0 0 0 0 0 0 0 0 0 0 0 0 0
0 0 0 0 0 0 0 0 0 0 0 0 0 0 0 0 0 0 0 0 0 0 0 0 0 0 0 0 0 0 0 0 0 0 0 0 0 0 0 0 0 0 0 0
0 0 0 0 0 0 0 0 0 0 0 0 0 0 0 0 0 0 0 0 0 0 0 0 0 0 0 0 0 0 0 0 0 0 0 0 0 0 0 0 0 0 0 0
0 0 0 0 0 0 0 0 0 0 0 0 0 0 0 0 0 0 0 0 0 0 0 0 0 0 0 0 0 0 0 0 0 0 0 0 0 0 0 0 0 0 0 0
0 0 0 0 0 0 0 0 0 0 0 0 0 0 0 0 0 0 0 0 0 0 0 0 0 0 0 0 0 0 0 0 0 0 0 0 0 0 0 0 0 0 0 0
0 0 0 0 0 0 0 0 0 0 0 0 0 0 0 0 0 0 0 0 0 0 0 0 0 0 0 0 0 0 0 0 0 0 0 0 0 0 0 0 0 0 0 0
0 0 0 0 0 0 0 0 0 0 0 0 0 0 0 0 0 0 0 0 0 0 0 0 0 0 0 0 0 0 0 0 0 0 0 0 0 0 0 0 0 0 0 0
0 0 0 0 0 0 0 0 0 0 0 0 0 0 0 0 0 0 0 0 0 0 0 0 0 0 0 0 0 0 0 0 0 0 0 0 0 0 0 0 0 0 0 0
0 0 0 0 0 0 0 0 0 0 0 0 0 0 0 0 0 0 0 0 0 0 0 0 0 0 0 0 0 0 0 0 0 0 0 0 0 0 0 0 0 0 0 0
0 0 0 0 0 0 0 0 0 0 0 0 0 0 0 0 0 0 0 0 0 0 0 0 0 0 0 0 0 0 0 0 0 0 0 0 0 0 0 0 0 0 0 0
0 0 0 0 0 0 0 0 0 0 0 0 0 0 0 0 0 0 0 0 0 0 0 0 0 0 0 0 0 0 0 0 0 0 0 0 0 0 0 0 0 0 0 0
0 0 0 0 0 0 0 0 0 0 0 0 0 0 0 0 0 0 0 0 0 0 0 0 0 0 0 0 0 0 0 0 0 0 0 0 0 0 0 0 0 0 0 0
0 0 0 0 0 0 0 0 0 0 0 0 0 0 0 0 0 0 0 0 0 0 0 0 0 0 0 0 0 0 0 0 0 0 0 0 0 0 0 0 0 0 0 0
0 0 0 0 0 0 0 0 0 0 0 0 0 0 0 0 0 0 0 0 0 0 0 0 0 0 0 0 0 0 0 0 0 0 0 0 0 0 0 0 0 0 0 0

GEFSNGP_con_prob3kmehi_120.txt.gz
EHI
0 0 0 0 0 0 0 0 0 0 1 2 5 8 10 11 17 23 26 22 17 15 14 14 14 12 11 10 9 9 8 7 6 5 3 2 3 4 4 4 4 4 4 3
0 0 0 0 0 0 0 0 0 0 2 6 11 13 12 14 19 25 26 23 19 17 16 15 14 12 11 10 9 8 6 4 4 4 3 3 4 5 5 6 6 6 6 5
0 0 0 0 0 0 0 0 1 3 8 14 20 23 21 19 22 26 26 23 20 19 19 17 14 11 10 10 9 8 6 5 5 4 4 5 5 6 7 7 7 7 7 6
0 0 0 0 0 0 0 0 2 8 17 25 30 31 29 25 23 25 26 22 19 18 18 17 15 12 11 13 13 10 8 8 9 8 7 8 8 8 8 7 5 4 4 4
0 0 0 0 0 0 0 1 4 10 20 26 26 26 26 24 22 23 25 24 20 16 13 15 16 16 15 17 17 13 10 10 11 10 10 10 9 8 7 5 3 2 2 3
0 0 0 0 0 0 0 3 8 13 17 20 19 20 22 20 20 21 22 23 20 13 11 14 17 16 17 18 18 15 11 11 11 10 10 10 9 7 4 2 1 1 2 2
0 0 0 0 0 1 3 9 16 20 21 21 23 24 20 16 16 17 16 15 14 11 11 14 17 16 15 16 16 15 14 12 12 11 10 10 9 5 2 0 0 0 1 1
0 0 0 0 1 3 8 15 21 25 27 26 24 21 15 12 11 10 8 7 8 10 12 15 16 15 14 15 15 15 15 14 13 11 9 8 6 3 1 0 0 0 0 0
0 0 0 0 2 4 10 15 20 23 23 20 15 11 9 8 7 5 4 4 5 7 10 12 13 12 14 15 15 14 14 13 12 9 5 3 2 1 0 0 0 0 0 0
0 0 0 1 2 5 10 13 14 16 15 12 9 6 5 4 3 3 2 2 3 4 5 7 8 9 11 12 11 10 11 11 9 5 2 0 0 0 0 0 0 0 0 0
0 0 1 3 5 7 9 9 9 10 10 7 5 3 2 1 1 1 1 1 1 2 3 3 4 5 5 5 5 5 6 6 4 2 1 0 0 0 0 0 0 0 0 0
1 1 3 6 6 6 7 7 7 7 6 4 2 1 1 0 0 0 0 0 0 1 1 1 2 2 1 1 1 1 1 1 1 1 0 0 0 0 0 0 0 0 0 0
2 3 5 6 6 4 4 4 4 4 4 2 1 0 0 0 0 0 0 0 0 0 0 0 0 0 0 0 0 0 0 0 0 0 0 0 0 0 0 0 0 0 0 0
2 3 4 5 4 2 2 2 3 4 3 1 0 0 0 0 0 0 0 0 0 0 0 0 0 0 0 0 1 0 0 0 0 0 0 0 0 0 0 0 0 0 0 0
1 1 1 2 2 1 1 1 2 2 1 0 0 0 0 0 0 0 0 0 0 0 0 0 0 0 0 0 0 0 0 0 0 0 0 0 0 0 0 0 0 0 0 0
0 0 0 0 0 0 0 1 1 1 0 0 0 0 0 0 0 0 0 0 0 0 0 0 0 0 0 0 0 0 0 0 0 0 0 0 0 0 0 0 0 0 0 0
0 0 0 0 0 0 0 0 0 0 0 0 0 0 0 0 0 0 0 0 0 0 0 0 0 0 0 0 0 0 0 0 0 0 0 0 0 0 0 0 0 0 0 0
0 0 0 0 0 0 0 0 0 0 0 0 0 0 0 0 0 0 0 0 0 0 0 0 0 0 0 0 0 0 0 0 0 0 0 0 0 0 0 0 0 0 0 0
0 0 0 0 0 0 0 0 0 0 0 0 0 0 0 0 0 0 0 0 0 0 0 0 0 0 0 0 0 0 0 0 0 0 0 0 0 0 0 0 0 0 0 0
0 0 0 0 0 0 0 0 0 0 0 0 0 0 0 0 0 0 0 0 0 0 0 0 0 0 0 0 0 0 0 0 0 0 0 0 0 0 0 0 0 0 0 0
0 1 1 0 0 0 0 0 0 0 0 0 0 0 0 0 0 0 0 0 0 0 0 0 0 0 0 0 0 0 0 0 0 0 0 0 0 0 0 0 0 0 0 0
1 1 1 0 0 0 0 0 0 0 0 0 0 0 0 0 0 0 0 0 0 0 0 0 0 0 0 0 0 0 0 0 0 0 0 0 0 0 0 0 0 0 0 0
1 1 1 0 0 0 0 0 0 0 0 0 0 0 0 0 0 0 0 0 0 0 0 0 0 0 0 0 0 0 0 0 0 0 0 0 0 0 0 0 0 0 0 0
1 0 0 0 0 0 0 0 0 0 0 0 0 0 0 0 0 0 0 0 0 0 0 0 0 0 0 0 0 0 0 0 0 0 0 0 0 0 0 0 0 0 0 0
0 0 0 0 0 0 0 0 0 0 0 0 0 0 0 0 0 0 0 0 0 0 0 0 0 0 0 0 0 0 0 0 0 0 0 0 0 0 0 0 0 0 0 0
0 0 0 0 0 0 0 0 0 0 0 0 0 0 0 0 0 0 0 0 0 0 0 0 0 0 0 0 0 0 0 0 0 0 0 0 0 0 0 0 0 0 0 0
0 0 0 0 0 0 0 0 0 0 0 0 0 0 0 0 0 0 0 0 0 0 0 0 0 0 0 0 0 0 0 0 0 0 0 0 0 0 0 0 0 0 0 0

GEFSNGP_con_prob3kmehi_126.txt.gz
EHI
0 0 0 0 0 0 0 0 1 4 9 15 19 24 28 36 45 49 48 51 56 58 59 55 47 40 37 34 30 25 22 19 19 20 20 20 20 20 19 16 13 12 11 10
0 0 0 0 0 0 0 0 1 4 9 15 21 25 27 33 43 48 47 51 55 59 60 56 46 40 38 35 29 24 20 17 16 17 18 19 19 20 20 17 13 10 9 10
0 0 0 0 0 0 0 1 3 7 15 24 30 31 31 33 42 49 51 55 59 63 63 55 44 36 34 32 28 23 19 17 17 16 17 18 17 17 17 14 11 9 8 9
0 0 0 0 0 0 0 2 5 14 26 37 42 43 42 43 49 58 60 61 62 62 59 52 41 33 30 30 28 24 21 20 20 20 19 18 16 14 13 12 11 10 9 10
0 0 0 0 0 0 1 3 8 18 31 42 45 46 50 56 60 65 65 61 57 54 51 46 39 33 31 31 30 25 23 23 22 21 20 19 17 14 12 14 14 12 10 9
0 0 0 0 0 0 2 8 16 26 37 44 45 48 56 62 63 62 58 53 49 47 44 41 38 34 32 31 29 26 25 25 24 22 21 20 19 16 14 15 15 11 8 5
0 0 0 0 1 4 12 23 33 42 52 58 60 62 63 61 56 50 45 43 43 43 41 38 35 33 31 30 30 29 27 26 23 20 18 17 18 15 13 12 11 7 3 1
0 3 9 14 16 20 30 40 47 55 62 67 68 64 58 52 46 39 34 34 36 37 36 35 32 29 28 29 31 31 28 23 19 16 13 13 13 11 9 8 6 2 0 0
7 13 25 33 34 35 39 44 48 53 55 56 54 48 42 40 37 31 27 26 26 28 29 28 26 23 23 26 28 27 24 21 17 13 11 10 9 6 4 3 2 0 0 0
17 22 30 34 33 32 32 34 39 42 42 40 38 34 33 33 30 24 20 17 17 19 21 20 19 18 18 19 20 19 19 18 16 13 10 8 5 2 1 1 0 0 0 0
20 22 24 22 18 19 21 23 26 30 32 31 29 29 28 26 22 17 14 11 10 11 13 13 13 14 13 12 12 13 14 13 13 11 7 3 1 0 0 0 0 0 0 0
16 17 17 13 10 10 13 15 16 19 22 22 22 21 19 16 13 11 9 8 7 7 7 7 7 9 9 8 8 10 10 8 7 6 3 1 0 0 0 0 0 0 0 0
14 14 13 10 7 7 8 10 11 13 15 15 14 12 10 8 6 4 4 4 4 4 3 2 3 5 7 6 6 7 6 4 3 2 1 0 0 0 0 0 0 0 0 0
13 12 10 9 7 6 6 7 8 10 11 11 9 8 6 4 2 1 1 1 1 1 1 1 1 4 5 4 4 4 2 1 1 0 0 0 0 0 0 0 0 0 0 0
10 9 7 6 4 3 3 5 6 7 8 8 6 4 3 2 1 1 1 0 0 0 0 0 1 2 3 3 2 1 0 0 0 0 0 0 0 0 0 0 0 0 0 0
6 5 3 2 1 1 1 3 3 4 6 5 3 2 2 2 2 1 0 0 0 0 0 0 0 1 1 1 1 0 0 0 0 0 0 0 0 0 0 0 0 0 0 0
3 2 2 1 1 0 0 1 1 3 4 3 1 1 2 3 2 1 0 0 0 0 0 0 0 0 0 0 0 0 0 0 0 0 0 0 0 0 0 0 0 0 0 0
1 1 1 0 0 0 0 0 1 2 3 2 1 1 2 2 1 0 0 0 0 0 0 0 0 0 0 0 0 0 0 0 0 0 0 0 0 0 0 0 0 0 0 0
1 1 1 0 0 0 0 0 1 2 2 2 2 2 2 1 0 0 0 0 0 0 0 0 0 0 0 0 0 0 0 0 0 0 0 0 0 0 0 0 0 0 0 0
2 2 1 0 0 0 0 0 1 1 1 1 2 2 1 0 0 0 0 0 0 0 0 0 0 0 0 0 0 0 0 0 0 0 0 0 0 0 0 0 0 0 0 0
3 2 1 0 0 0 0 0 0 0 0 0 1 1 1 0 0 0 0 0 0 0 0 0 0 0 0 0 0 0 0 0 0 0 0 0 0 0 0 0 0 0 0 0
3 1 1 2 2 1 0 0 0 0 0 0 0 0 0 0 0 0 0 0 0 0 0 0 0 0 0 0 0 0 0 0 0 0 0 0 0 0 0 0 0 0 0 0
3 2 2 4 4 3 1 0 0 0 0 0 0 0 0 0 0 0 0 0 0 0 0 0 0 0 0 0 0 0 0 0 0 0 0 0 0 0 0 0 0 0 0 0
3 2 3 4 3 2 0 0 0 0 0 0 0 0 0 0 0 0 0 0 0 0 0 0 0 0 0 0 0 0 0 0 0 0 0 0 0 0 0 0 0 0 0 0
4 4 3 2 1 0 0 0 0 0 0 0 0 0 0 0 0 0 0 0 0 0 0 0 0 0 0 0 0 0 0 0 0 0 0 0 0 0 0 0 0 0 0 0
4 3 2 1 0 0 0 0 0 0 0 0 0 1 0 0 0 0 0 0 0 0 0 0 0 0 0 0 0 0 0 0 0 0 0 0 0 0 0 0 0 0 0 0
2 1 1 0 0 0 0 0 0 0 0 0 0 1 0 0 0 0 0 0 0 0 0 0 0 0 0 0 0 0 0 0 0 0 0 0 0 0 0 0 0 0 0 0

GEFSNGP_con_prob3kmehi_132.txt.gz
EHI
0 0 0 0 0 0 0 0 0 1 2 5 12 17 20 24 29 32 31 28 25 23 22 20 15 10 9 9 8 5 3 2 2 3 3 3 3 3 2 1 0 0 0 1
0 0 0 0 0 0 0 0 1 3 4 7 12 17 21 27 34 37 33 28 24 22 22 20 13 8 7 8 8 6 4 3 3 3 3 3 3 3 3 1 0 0 0 1
0 0 0 0 0 0 0 1 2 5 8 12 16 20 25 31 37 38 32 26 23 20 18 15 10 7 7 9 10 9 6 4 4 4 3 3 3 2 2 1 0 0 0 1
0 0 0 0 0 0 1 3 6 9 14 21 27 30 31 32 32 32 28 22 17 13 11 9 9 10 11 12 12 10 8 6 5 4 3 2 1 1 1 1 0 0 0 0
0 0 0 0 0 1 4 8 12 16 23 30 36 39 35 28 27 27 24 18 11 6 5 6 8 9 11 11 11 10 9 6 5 5 4 2 0 0 0 0 0 0 0 0
0 0 0 0 1 2 5 11 15 20 28 33 36 36 32 26 24 24 21 15 8 4 5 6 8 8 8 9 9 9 8 6 5 5 5 2 0 0 0 0 0 0 0 0
0 0 0 1 1 1 4 9 16 22 28 30 31 31 30 27 24 22 20 15 8 5 6 7 8 8 8 8 8 8 6 5 4 5 5 3 1 0 0 0 0 0 0 0
0 0 0 1 1 1 5 13 22 28 29 30 34 35 31 27 24 22 20 16 11 7 5 6 7 8 8 8 7 6 4 4 4 4 4 4 2 1 0 0 0 0 0 0
2 3 3 5 4 5 11 21 29 32 31 32 35 34 28 23 21 20 18 14 10 7 5 4 5 6 7 6 5 4 3 3 3 3 3 4 3 1 0 0 0 0 0 0
6 6 8 10 10 11 17 24 28 30 29 27 27 23 20 19 18 15 12 10 8 6 5 3 3 4 4 4 3 2 2 3 3 3 3 3 2 1 0 0 0 0 0 0
6 6 8 11 12 15 20 24 24 24 22 20 17 14 12 13 13 10 7 6 5 5 3 2 1 1 1 1 1 1 1 1 2 2 2 2 1 1 0 0 0 0 0 0
2 3 6 7 8 12 17 19 18 17 16 14 11 8 8 8 8 6 4 2 2 2 1 1 0 0 0 0 0 0 0 0 1 1 1 1 0 0 0 0 0 0 0 0
0 1 4 5 5 6 9 9 10 11 12 10 7 5 5 4 4 3 1 0 0 0 0 0 0 0 0 0 0 0 0 0 0 0 0 0 0 0 0 0 0 0 0 0
0 1 2 3 2 2 3 4 6 8 8 7 6 4 3 2 2 1 0 0 0 0 0 0 0 0 0 0 0 0 0 0 0 0 0 0 0 0 0 0 0 0 0 0
0 0 1 1 1 1 2 3 5 6 5 4 3 3 1 1 1 0 0 0 0 0 0 0 0 0 0 0 0 0 0 0 0 0 0 0 0 0 0 0 0 0 0 0
0 0 0 0 0 0 1 1 3 3 3 2 1 1 0 0 0 0 0 0 0 0 0 0 0 0 0 0 0 0 0 0 0 0 0 0 0 0 0 0 0 0 0 0
0 0 0 0 0 0 0 0 1 1 1 1 0 0 0 0 0 0 0 0 0 0 0 0 0 0 0 0 0 0 0 0 0 0 0 0 0 0 0 0 0 0 0 0
0 0 0 0 0 0 0 0 0 0 0 0 0 0 0 0 0 0 0 0 0 0 0 0 0 0 0 0 0 0 0 0 0 0 0 0 0 0 0 0 0 0 0 0
0 0 0 0 0 0 0 0 0 1 1 1 0 0 0 0 0 0 0 0 0 0 0 0 0 0 0 0 0 0 0 0 0 0 0 0 0 0 0 0 0 0 0 0
0 0 0 0 0 0 0 0 0 1 2 1 0 0 0 0 0 0 0 0 0 0 0 0 0 0 0 0 0 0 0 0 0 0 0 0 0 0 0 0 0 0 0 0
0 0 0 0 0 0 0 0 0 1 1 0 0 0 0 0 0 0 0 0 0 0 0 0 0 0 0 0 0 0 0 0 0 0 0 0 0 0 0 0 0 0 0 0
0 0 0 0 1 0 0 0 0 0 0 0 0 0 0 0 0 0 0 0 0 0 0 0 0 0 0 0 0 0 0 0 0 0 0 0 0 0 0 0 0 0 0 0
0 0 0 0 0 0 0 0 0 0 0 0 0 0 0 0 0 0 0 0 0 0 0 0 0 0 0 0 0 0 0 0 0 0 0 0 0 0 0 0 0 0 0 0
0 0 0 0 0 0 0 0 0 0 0 0 0 0 0 0 0 0 0 0 0 0 0 0 0 0 0 0 0 0 0 0 0 0 0 0 0 0 0 0 0 0 0 0
0 0 0 0 0 0 0 0 0 0 0 0 0 0 0 0 0 0 0 0 0 0 0 0 0 0 0 0 0 0 0 0 0 0 0 0 0 0 0 0 0 0 0 0
0 0 0 0 0 0 0 0 0 0 0 0 0 0 0 0 0 0 0 0 0 0 0 0 0 0 0 0 0 0 0 0 0 0 0 0 0 0 0 0 0 0 0 0
0 0 0 0 0 0 0 0 0 0 0 0 0 0 0 0 0 0 0 0 0 0 0 0 0 0 0 0 0 0 0 0 0 0 0 0 0 0 0 0 0 0 0 0

GEFSNGP_con_prob3kmehi_138.txt.gz
EHI
0 0 0 0 0 0 0 0 0 0 0 1 2 4 8 12 14 15 15 16 16 14 11 10 11 7 2 0 0 0 0 0 0 0 0 0 0 0 0 0 0 0 0 0
0 0 0 0 0 0 0 0 0 0 0 1 3 5 7 10 14 15 14 13 13 10 7 7 8 5 2 0 0 0 0 0 0 0 0 0 0 0 0 0 0 0 0 0
0 0 0 0 0 0 0 0 0 0 0 2 4 6 6 8 12 14 13 11 8 5 3 2 3 3 2 0 0 0 0 0 0 0 0 0 0 0 0 0 0 0 0 0
0 0 0 0 0 0 0 0 0 1 2 4 6 7 6 6 9 12 12 9 5 2 1 1 1 2 1 0 0 0 0 0 0 0 0 0 0 0 0 0 0 0 0 0
0 0 0 0 0 0 0 0 1 3 5 7 9 9 7 6 7 9 9 6 3 2 2 2 1 0 0 1 1 0 0 0 0 0 0 0 0 0 0 0 0 0 0 0
0 0 0 0 0 0 0 0 1 4 6 8 9 9 7 6 7 6 5 3 2 2 3 3 1 1 2 2 2 0 0 0 0 0 1 1 0 0 0 0 0 0 0 0
0 0 0 0 0 0 0 0 1 4 6 7 7 6 6 6 7 6 3 2 3 3 4 3 3 3 4 4 2 0 0 0 0 0 0 1 1 0 0 0 0 0 0 0
0 0 0 0 0 0 0 0 2 4 7 8 7 6 6 5 6 5 3 3 3 4 4 4 4 5 5 3 1 0 0 0 0 0 0 0 0 0 0 0 0 0 0 0
0 0 0 0 0 0 0 1 2 5 9 11 11 10 7 5 4 3 3 4 3 3 4 4 4 3 3 1 0 0 0 0 0 0 0 0 0 0 0 0 0 0 0 0
0 0 2 2 1 1 1 1 2 5 10 12 13 12 9 5 3 3 3 3 3 3 3 2 2 1 1 0 0 0 0 0 0 0 0 0 0 1 0 0 0 0 0 0
0 1 3 3 2 1 1 1 2 5 8 8 10 10 8 4 2 3 3 3 3 3 3 2 0 0 0 0 0 0 0 0 0 0 0 0 0 0 0 0 0 0 0 0
0 0 2 2 2 2 2 2 2 3 4 4 5 7 5 3 3 3 3 3 3 3 3 2 0 0 0 0 0 0 0 0 0 0 0 0 0 0 0 0 0 0 0 0
0 0 0 0 0 1 2 2 1 1 1 1 2 4 4 3 3 3 3 3 3 2 2 1 0 0 0 0 0 0 0 0 0 0 0 0 0 0 0 0 0 0 0 0
0 0 0 0 0 0 1 1 0 0 0 0 1 2 3 3 3 3 3 2 1 1 1 0 0 0 0 0 0 0 0 0 0 0 0 0 0 0 0 0 0 0 0 0
0 0 0 0 0 0 0 0 0 0 0 0 1 2 3 3 3 2 1 1 0 0 0 0 0 0 0 0 0 0 0 0 0 0 0 0 0 0 0 0 0 0 0 0
0 0 0 0 0 0 0 0 0 0 0 0 0 1 2 3 3 1 0 0 0 0 0 0 0 0 0 0 0 0 0 0 0 0 0 0 0 0 0 0 0 0 0 0
0 0 0 0 0 0 0 0 0 0 0 0 0 1 2 2 2 1 0 0 0 0 0 0 0 0 0 0 0 0 0 0 0 0 0 0 0 0 0 0 0 0 0 0
0 0 0 0 0 0 0 0 0 0 0 0 0 1 1 1 1 0 0 0 0 0 0 0 0 0 0 0 0 0 0 0 0 0 0 0 0 0 0 0 0 0 0 0
0 0 0 0 0 0 0 0 0 0 0 0 0 0 0 0 0 0 0 0 0 0 0 0 0 0 0 0 0 0 0 0 0 0 0 0 0 0 0 0 0 0 0 0
0 0 0 0 0 0 0 0 0 0 0 0 0 0 0 0 0 0 0 0 0 0 0 0 0 0 0 0 0 0 0 0 0 0 0 0 0 0 0 0 0 0 0 0
0 0 0 0 0 0 0 0 0 0 0 0 0 0 0 0 0 0 0 0 0 0 0 0 0 0 0 0 0 0 0 0 0 0 0 0 0 0 0 0 0 0 0 0
0 0 0 0 0 0 0 0 0 0 0 0 0 0 0 0 0 0 0 0 0 0 0 0 0 0 0 0 0 0 0 0 0 0 0 0 0 0 0 0 0 0 0 0
0 0 0 0 0 0 0 0 0 0 0 0 0 0 0 0 0 0 0 0 0 0 0 0 0 0 0 0 0 0 0 0 0 0 0 0 0 0 0 0 0 0 0 0
0 0 0 0 0 0 0 0 0 0 0 0 0 0 0 0 0 0 0 0 0 0 0 0 0 0 0 0 0 0 0 0 0 0 0 0 0 0 0 0 0 0 0 0
0 0 0 0 0 0 0 0 0 0 0 0 0 0 0 0 0 0 0 0 0 0 0 0 0 0 0 0 0 0 0 0 0 0 0 0 0 0 0 0 0 0 0 0
0 0 0 0 0 0 0 0 0 0 0 0 0 0 0 0 0 0 0 0 0 0 0 0 0 0 0 0 0 0 0 0 0 0 0 0 0 0 0 0 0 0 0 0
0 0 0 0 0 0 0 0 0 0 0 0 0 0 0 0 0 0 0 0 0 0 0 0 0 0 0 0 0 0 0 0 0 0 0 0 0 0 0 0 0 0 0 0

GEFSNGP_con_prob3kmehi_144.txt.gz
EHI
0 0 0 0 0 0 0 0 0 0 0 1 5 8 15 30 44 52 58 59 58 58 55 48 40 34 32 29 20 14 9 5 3 2 1 1 1 2 3 4 5 7 7 5
0 0 0 0 0 0 0 0 0 0 0 1 4 8 15 29 43 55 62 63 61 60 55 49 42 36 33 28 20 14 10 6 4 4 3 2 2 3 3 3 4 6 6 4
0 0 0 0 0 0 0 0 0 0 0 1 4 8 14 25 39 54 64 64 64 63 57 49 43 37 32 26 19 15 12 9 8 8 7 6 4 4 3 4 5 6 6 5
0 0 0 0 0 0 0 0 0 0 0 1 4 7 11 18 31 48 60 63 65 66 60 49 41 36 29 23 19 15 13 11 10 10 10 8 7 6 7 7 8 8 8 7
0 0 0 0 0 0 0 0 1 1 2 3 4 6 9 17 30 45 58 65 67 66 61 51 42 35 29 24 19 16 13 12 12 11 10 9 9 10 10 11 11 10 10 10
0 0 0 0 0 0 0 1 4 5 5 6 8 10 17 27 37 49 61 68 68 64 59 53 44 37 30 25 19 15 12 11 11 11 10 10 11 11 12 12 11 9 8 7
0 0 0 1 1 1 4 10 15 14 12 14 19 25 32 38 44 53 63 67 65 60 55 49 43 37 30 23 16 12 10 9 9 9 9 9 9 9 10 11 9 7 5 5
0 0 2 5 6 8 16 26 31 29 24 26 32 37 40 42 47 53 58 60 59 54 48 42 38 33 26 19 12 8 6 6 7 7 5 5 6 6 8 8 7 5 4 4
2 2 5 9 13 18 26 35 41 40 34 33 36 38 39 43 46 50 51 50 49 45 38 32 27 22 18 15 10 6 5 5 6 5 4 4 5 6 6 5 4 4 4 4
5 5 8 12 18 25 32 36 39 39 34 31 33 34 38 43 44 43 41 39 37 33 28 22 17 13 12 11 9 6 5 4 5 4 3 4 5 5 4 4 3 3 3 3
6 8 11 17 24 32 38 38 37 34 29 27 29 31 35 39 39 34 30 28 26 23 19 15 11 9 10 9 7 6 5 4 3 2 2 2 2 2 2 2 2 2 2 2
6 9 16 23 28 32 34 34 32 29 25 23 24 25 28 31 30 26 23 21 20 17 14 12 9 9 10 8 7 6 6 5 3 1 1 0 0 0 0 1 1 1 1 1
7 10 16 21 23 23 23 23 23 22 21 20 20 19 20 20 19 18 18 18 16 14 12 11 10 9 8 8 7 6 6 6 4 3 2 1 0 0 0 0 0 0 0 0
7 8 12 14 15 15 15 15 16 17 17 15 14 13 12 10 9 10 12 12 11 10 9 8 7 6 5 6 6 6 6 6 5 4 3 1 0 0 0 0 0 0 0 0
4 4 6 7 7 7 8 8 9 11 11 8 6 5 4 4 4 5 6 6 6 6 5 4 3 2 2 3 5 6 5 5 4 3 2 1 0 0 0 0 0 0 0 0
1 1 2 2 2 2 1 2 3 4 3 2 1 1 1 1 2 3 3 3 3 3 3 1 0 0 0 1 3 3 3 2 1 1 1 0 0 0 0 0 0 0 0 0
0 0 0 1 0 0 0 0 1 1 0 0 0 0 0 0 1 1 1 1 1 2 1 0 0 0 0 0 1 1 1 0 0 0 0 0 0 0 0 0 0 0 0 0
0 0 0 0 0 0 0 0 0 0 0 0 0 1 1 1 1 0 0 0 1 1 1 0 0 0 0 0 0 0 0 0 0 0 0 0 0 0 0 0 0 0 0 0
0 0 0 0 0 0 0 0 0 0 0 0 0 1 2 2 2 1 0 0 0 0 0 0 0 0 0 0 0 0 0 0 0 0 0 0 0 0 0 0 0 0 0 0
0 0 0 1 1 1 1 0 0 1 0 0 0 0 1 2 2 1 1 0 0 0 0 0 0 0 0 0 0 0 0 0 0 0 0 0 0 0 0 0 0 0 0 0
0 0 0 1 2 2 1 1 1 1 0 0 0 0 1 1 1 0 0 0 0 0 0 0 0 0 0 0 0 0 0 0 0 0 0 0 0 0 0 0 0 0 0 0
0 0 1 1 1 1 1 1 1 0 0 0 0 0 0 0 0 0 0 0 0 0 0 0 0 0 0 0 0 0 0 0 0 0 0 0 0 0 0 0 0 0 0 0
0 0 1 2 1 0 0 1 1 0 0 0 1 1 0 0 0 0 0 0 0 0 0 0 0 0 0 0 0 0 0 0 0 0 0 0 0 0 0 0 0 0 0 0
0 0 1 1 1 0 0 0 0 0 0 0 1 1 0 0 0 0 0 0 0 0 0 0 0 0 0 0 0 0 0 0 0 0 0 0 0 0 0 0 0 0 0 0
0 0 0 0 0 0 1 1 0 0 0 0 1 1 0 0 0 0 0 0 0 0 0 0 0 0 0 0 0 0 0 0 0 0 0 0 0 0 0 0 0 0 0 0
0 0 0 0 0 1 2 1 0 0 0 0 0 0 0 0 0 0 0 0 0 0 0 0 0 0 0 0 0 0 0 0 0 0 0 0 0 0 0 0 0 0 0 0
0 0 0 0 0 1 2 1 0 0 0 0 0 0 0 0 0 0 0 0 0 0 0 0 0 0 0 0 0 0 0 0 0 0 0 0 0 0 0 0 0 0 0 0

GEFSNGP_con_prob3kmehi_150.txt.gz
EHI
0 0 0 0 0 0 0 0 0 0 1 5 8 9 18 35 48 58 68 75 78 81 80 77 73 64 54 52 53 49 43 36 29 19 12 10 9 8 8 7 7 9 10 10
0 0 0 0 0 0 0 0 0 0 2 7 10 13 20 35 49 59 67 73 79 82 82 79 74 65 58 55 54 50 41 35 29 19 12 10 10 10 12 12 10 10 10 10
0 0 0 0 0 0 0 0 0 0 2 8 14 19 25 36 49 59 65 71 79 85 85 81 73 66 63 60 55 48 38 31 27 20 15 13 13 15 17 15 12 10 9 10
0 0 0 0 0 0 0 0 1 2 4 10 16 21 28 37 48 59 66 74 82 86 87 81 72 67 64 60 53 45 36 29 26 22 19 16 16 17 17 15 13 10 9 10
0 0 0 0 0 0 0 1 5 6 9 13 16 21 31 44 55 63 71 80 87 88 86 81 75 70 65 58 53 46 37 30 25 22 20 19 18 17 15 14 13 11 10 10
0 0 0 0 0 0 1 7 15 19 21 24 26 31 45 60 67 71 76 83 87 88 85 82 78 73 66 60 55 48 40 32 26 21 20 20 19 16 13 12 12 10 9 9
0 0 1 2 3 7 15 26 35 37 40 46 50 56 67 73 74 75 76 78 82 85 85 83 79 73 67 61 55 49 42 35 28 22 18 17 17 15 12 11 10 9 7 6
0 2 7 12 15 25 39 47 47 46 50 58 64 71 77 77 74 73 72 74 77 81 81 78 74 70 64 57 51 47 43 37 30 24 18 15 15 13 11 9 8 7 5 4
6 11 19 25 30 39 46 46 42 40 43 50 58 65 72 74 74 71 69 70 74 77 76 70 65 62 58 51 45 43 41 36 30 25 20 16 14 11 10 9 7 5 4 3
16 20 25 29 34 37 37 35 33 33 34 39 47 55 63 70 72 69 66 67 69 70 67 61 56 52 48 43 39 36 33 30 26 22 19 16 13 10 10 9 6 4 3 2
21 22 25 27 28 29 30 30 31 32 33 37 43 49 57 63 66 64 63 63 64 61 56 50 46 41 36 33 30 28 26 23 20 17 14 13 11 9 8 6 4 3 3 2
17 19 22 23 23 25 28 30 32 33 35 38 43 48 52 56 56 54 54 55 53 49 43 39 36 31 27 25 24 24 22 20 17 15 13 11 9 7 4 2 1 1 1 1
14 14 16 19 22 25 28 30 31 32 34 37 41 44 46 48 46 44 42 40 39 36 32 30 27 24 23 21 19 19 19 17 15 14 11 9 8 7 3 1 0 0 0 0
12 11 12 16 21 23 24 26 27 26 26 29 33 36 36 35 34 31 28 27 26 25 23 20 19 19 18 16 15 15 15 14 13 11 9 7 6 6 4 2 1 0 0 0
10 9 10 13 14 14 15 17 20 19 17 19 24 28 26 22 19 18 18 18 16 15 14 12 12 14 13 12 11 11 12 11 9 8 6 5 4 3 3 3 2 1 0 0
7 7 7 7 6 5 5 9 13 13 11 13 17 19 17 13 10 10 11 12 11 10 9 8 9 10 10 9 8 7 6 5 5 5 3 2 1 1 1 3 3 2 1 0
4 4 3 2 1 1 2 5 8 9 9 11 12 11 9 7 6 6 6 7 8 8 6 5 7 8 6 5 3 2 1 1 1 1 1 0 1 1 1 2 2 2 1 0
2 2 1 0 0 0 2 3 4 5 6 8 7 5 4 3 3 2 2 2 3 4 4 4 4 4 3 1 0 0 0 0 0 0 0 0 1 1 1 1 1 2 1 1
2 1 0 0 0 0 1 2 2 2 3 3 3 3 2 1 1 1 1 1 1 1 2 2 2 2 1 0 0 0 0 0 0 0 0 0 1 1 0 0 1 1 1 0
1 1 0 0 0 0 1 2 3 2 1 1 3 3 2 1 1 2 4 4 3 2 2 1 1 0 0 0 0 0 0 0 0 0 0 0 0 0 0 0 1 1 0 0
0 1 1 1 1 1 2 4 5 3 1 2 4 4 4 3 3 4 6 5 3 1 1 0 0 0 0 0 0 0 0 0 0 0 0 0 0 0 0 0 0 0 0 0
1 2 3 3 4 4 4 5 5 4 2 3 4 5 6 6 5 5 6 4 1 0 0 0 0 0 0 0 0 0 0 0 0 0 0 0 0 0 0 0 0 0 0 0
2 3 4 4 4 4 5 6 7 7 6 7 7 7 6 6 5 5 4 2 0 0 0 0 0 0 0 0 0 0 0 0 0 0 0 0 0 0 0 0 0 0 0 0
1 2 3 2 2 3 5 5 7 9 11 12 11 9 7 4 3 2 1 0 0 0 0 0 0 0 0 0 0 0 0 0 0 0 0 0 0 0 0 0 0 0 0 0
1 1 1 1 1 2 3 4 5 8 11 11 9 7 5 3 1 0 0 0 0 0 0 0 0 0 0 0 0 0 0 0 0 0 0 0 0 0 0 0 0 0 0 0
1 0 0 0 0 1 1 1 3 5 6 5 5 3 2 1 0 0 0 0 0 0 0 0 0 0 0 0 0 0 0 0 0 0 0 0 0 0 0 0 0 0 0 0
1 0 0 0 0 0 0 1 2 2 2 3 3 1 0 0 0 0 0 0 0 0 0 0 0 0 0 0 0 0 0 0 0 0 0 0 0 0 0 0 0 0 0 0

GEFSNGP_con_prob3kmehi_156.txt.gz
EHI
0 0 0 0 0 0 0 0 0 0 1 4 10 17 26 38 51 61 63 59 56 58 60 60 58 53 44 36 31 29 23 13 6 4 4 2 2 2 2 1 1 1 0 0
0 0 0 0 0 0 0 1 1 1 3 7 13 21 30 43 56 64 66 63 60 61 62 63 61 56 46 38 33 29 24 16 8 6 5 3 2 1 1 0 0 0 0 0
0 0 0 0 0 0 2 5 6 6 9 15 21 27 34 45 59 68 69 68 66 65 66 66 62 57 48 40 35 31 26 18 12 8 7 5 3 1 1 0 0 0 1 1
0 0 0 0 0 1 4 10 14 16 19 24 30 32 35 43 56 66 70 71 70 69 71 68 63 57 49 42 35 30 25 18 11 8 7 6 5 3 1 0 0 0 0 0
0 0 0 1 2 3 8 16 22 27 30 34 38 38 38 42 50 60 68 71 72 73 73 70 65 61 55 46 36 27 20 14 9 7 6 6 5 3 1 0 0 0 0 0
0 0 1 4 7 8 11 19 28 35 40 41 42 41 39 42 49 58 65 71 73 74 74 72 68 65 60 49 35 23 16 11 8 6 6 5 3 1 0 0 0 0 0 0
0 0 2 7 11 10 12 19 29 39 44 44 43 44 44 47 55 62 66 70 73 74 73 70 66 62 56 44 29 19 14 10 7 6 5 3 1 0 0 0 0 0 0 0
0 0 2 7 9 10 13 21 30 39 44 45 49 53 55 58 62 67 69 69 69 68 66 61 57 53 46 35 25 17 12 7 5 4 3 1 0 0 0 0 0 0 0 0
2 3 5 8 9 11 18 26 33 38 43 46 51 57 60 61 63 66 66 64 61 59 56 51 46 43 38 29 21 15 9 5 3 3 2 1 0 0 0 0 0 0 0 0
6 7 9 10 11 14 19 28 34 39 43 44 46 51 53 54 56 58 57 53 50 50 47 42 37 34 30 22 16 11 7 4 3 3 2 1 0 0 0 0 0 0 0 0
7 8 9 9 10 13 18 24 31 38 41 40 41 43 46 46 46 45 41 37 37 40 39 33 28 25 21 16 12 10 8 6 4 3 1 0 0 0 0 0 0 0 0 0
5 6 7 7 7 10 15 21 27 33 35 35 35 36 39 37 33 30 27 24 24 27 29 26 21 17 15 13 10 9 9 7 5 3 1 0 0 1 0 0 0 0 0 0
4 4 5 6 6 7 11 16 19 23 25 25 25 26 28 28 24 20 17 16 15 16 18 18 14 10 9 10 9 8 8 7 5 3 1 0 0 0 0 0 0 0 0 0
3 3 4 4 4 4 6 9 11 12 14 14 14 15 19 20 17 13 11 9 8 7 8 8 7 5 5 6 7 7 6 5 3 1 1 0 0 0 0 0 0 0 0 0
3 3 3 3 3 3 4 6 6 6 7 7 7 7 11 12 9 6 5 3 2 1 1 2 2 2 2 3 5 5 5 3 1 0 0 0 0 0 0 0 0 0 0 0
2 2 2 2 2 2 3 3 4 3 3 3 3 4 5 4 3 1 1 1 0 0 0 0 0 0 0 1 2 4 3 2 1 0 0 0 0 0 0 0 0 0 0 0
1 1 1 1 1 1 1 1 1 1 0 0 1 3 3 2 0 0 0 0 0 0 0 0 0 0 0 0 1 3 2 1 0 0 0 0 0 0 0 0 0 0 0 0
0 0 0 0 0 0 0 0 0 0 0 0 1 2 3 2 0 0 0 0 0 0 0 0 0 0 0 1 2 3 2 1 0 0 0 0 0 0 0 0 0 0 0 0
0 0 0 0 0 0 0 0 0 0 0 0 0 1 2 1 0 0 0 0 0 0 0 0 0 0 0 1 2 3 3 2 1 0 0 0 0 0 0 0 0 0 0 0
0 0 0 0 0 0 0 0 0 0 0 0 0 0 0 0 0 0 0 0 0 0 0 0 0 0 0 0 1 2 3 2 1 0 0 0 0 0 0 0 0 0 0 0
0 0 0 0 0 0 0 0 0 0 0 0 0 0 0 0 0 0 0 0 0 0 0 0 0 0 0 0 0 1 1 1 1 0 0 0 0 0 0 0 0 0 0 0
0 0 0 0 0 0 0 0 0 0 0 0 0 0 0 0 0 0 0 0 0 0 0 0 0 0 0 0 0 0 0 0 0 0 0 0 0 0 0 0 0 0 0 0
0 0 0 0 0 0 0 0 0 0 0 0 0 0 0 0 0 0 0 0 0 0 0 0 0 0 0 0 0 0 0 0 0 0 0 0 0 0 0 0 0 0 0 0
0 0 0 0 0 0 0 0 0 0 0 0 0 0 0 0 0 0 0 0 0 0 0 0 0 0 0 0 0 0 0 0 0 0 0 0 0 0 0 0 0 0 0 0
0 0 0 0 0 0 0 0 0 0 0 0 0 0 0 0 0 0 0 0 0 0 0 0 0 0 0 0 0 0 0 0 0 0 0 0 0 0 0 0 0 0 0 0
0 0 0 0 0 0 0 0 0 0 0 0 0 0 0 0 0 0 0 0 0 0 0 0 0 0 0 0 0 0 0 0 0 0 0 0 0 0 0 0 0 0 0 0
0 0 0 0 0 0 0 0 0 0 0 0 0 0 0 0 0 0 0 0 0 0 0 0 0 0 0 0 0 0 0 0 0 0 0 0 0 0 0 0 0 0 0 0

GEFSNGP_con_prob3kmehi_162.txt.gz
EHI
0 0 0 0 0 0 0 0 0 0 1 3 3 4 9 19 26 29 29 25 26 31 30 25 23 24 26 25 20 17 13 7 4 2 1 0 0 0 0 0 0 0 0 0
0 0 0 0 0 0 0 0 0 1 2 3 5 6 11 21 31 34 31 28 30 34 36 33 30 31 30 27 22 18 13 9 6 5 3 1 1 1 1 0 0 0 0 0
0 0 0 0 1 1 1 2 2 2 3 4 7 11 15 24 34 37 36 35 35 37 40 39 39 39 35 28 23 19 14 11 8 6 4 2 2 2 1 0 0 0 0 0
0 0 0 1 3 4 5 5 5 5 6 8 12 16 20 26 33 36 38 38 36 36 38 38 40 41 36 29 24 19 15 11 7 5 3 2 1 1 1 0 0 0 0 0
0 0 0 2 5 7 7 7 7 8 11 13 16 19 22 25 31 34 35 34 33 36 38 38 40 42 38 30 22 18 14 9 4 3 3 3 2 1 0 0 0 0 0 0
0 0 0 2 5 6 6 7 8 11 15 16 18 21 22 24 30 35 35 32 32 37 41 40 39 42 38 29 20 15 12 7 3 3 4 4 3 2 1 0 0 0 0 0
0 0 0 2 5 4 3 6 10 14 15 16 19 21 22 27 34 38 37 34 33 37 40 36 35 37 34 25 18 14 11 7 4 3 4 3 3 2 1 0 0 0 0 0
0 0 0 3 5 4 3 6 11 13 13 15 19 23 27 33 39 41 39 37 34 35 36 31 30 32 28 22 17 14 11 8 5 3 3 3 3 1 0 0 0 0 0 0
1 1 2 4 7 7 5 7 9 11 13 18 23 26 28 32 38 39 38 35 31 29 29 26 25 25 23 18 15 14 12 8 5 4 3 3 2 1 0 0 0 0 0 0
3 3 4 5 7 8 6 6 9 13 17 21 25 26 24 27 31 33 31 27 23 20 20 20 20 19 17 13 11 12 11 8 5 4 4 3 1 0 0 0 0 0 0 0
2 2 2 4 5 6 6 6 10 15 17 19 21 23 22 23 25 25 21 18 14 11 12 13 15 14 11 8 7 9 9 7 5 4 4 2 1 0 0 0 0 0 0 0
1 0 1 2 3 4 5 6 9 12 15 15 16 18 19 19 19 17 14 11 9 8 8 7 8 8 7 4 4 5 6 6 5 5 3 1 0 0 0 0 0 0 0 0
0 0 0 1 3 3 4 5 7 9 12 12 12 13 14 13 12 10 7 5 5 5 4 3 2 2 2 2 3 3 4 4 4 4 3 1 0 0 0 0 0 0 0 0
0 0 0 1 2 3 3 4 5 7 9 9 8 9 9 8 6 4 2 1 1 2 1 1 0 0 0 2 3 3 2 2 2 3 2 1 0 0 0 0 0 0 0 0
0 0 0 1 2 3 3 3 4 5 6 6 6 6 7 5 3 1 0 0 0 0 0 0 0 0 0 1 2 1 1 1 1 1 1 1 0 0 0 0 0 0 0 0
0 0 0 1 3 3 3 3 3 3 4 5 5 5 5 4 2 1 0 0 0 0 0 0 0 0 0 0 0 1 1 0 0 0 0 0 0 0 0 0 0 0 0 0
0 0 1 2 3 3 3 3 2 1 2 3 4 4 3 1 1 1 0 0 0 0 0 0 0 0 0 0 0 0 0 0 0 0 0 0 0 0 0 0 0 0 0 0
0 0 1 2 2 2 2 1 1 0 0 1 2 2 1 0 0 0 0 0 0 0 0 0 0 0 0 0 0 0 0 0 0 0 0 0 0 0 0 0 0 0 0 0
0 0 1 1 1 1 1 0 0 0 0 0 0 0 0 0 0 0 0 0 0 0 0 0 0 0 0 0 0 0 0 0 0 0 0 0 0 0 0 0 0 0 0 0
0 0 0 0 0 0 0 0 0 0 0 0 0 0 0 0 0 0 0 0 0 0 0 0 0 0 0 0 0 0 0 0 0 0 0 0 0 0 0 0 0 0 0 0
0 0 0 0 0 0 0 0 0 0 0 0 0 0 0 0 0 0 0 0 0 0 0 0 0 0 0 0 0 0 0 0 0 0 0 0 0 0 0 0 0 0 0 0
0 0 0 0 0 0 0 0 0 0 0 0 0 0 0 0 0 0 0 0 0 0 0 0 0 0 0 0 0 0 0 0 0 0 0 0 0 0 0 0 0 0 0 0
0 0 0 0 0 0 0 0 0 0 0 0 0 0 0 0 0 0 0 0 0 0 0 0 0 0 0 0 0 0 0 0 0 0 0 0 0 0 0 0 0 0 0 0
0 0 0 0 0 0 0 0 0 0 0 0 0 0 0 0 0 0 0 0 0 0 0 0 0 0 0 0 0 0 0 0 0 0 0 0 0 0 0 0 0 0 0 0
0 0 0 0 0 0 0 0 0 0 0 0 0 0 0 0 0 0 0 0 0 0 0 0 0 0 0 0 0 0 0 0 0 0 0 0 0 0 0 0 0 0 0 0
0 0 0 0 0 0 0 0 0 0 0 0 0 0 0 0 0 0 0 0 0 0 0 0 0 0 0 0 0 0 0 0 0 0 0 0 0 0 0 0 0 0 0 0
0 0 0 0 0 0 0 0 0 0 0 0 0 0 0 0 0 0 0 0 0 0 0 0 0 0 0 0 0 0 0 0 0 0 0 0 0 0 0 0 0 0 0 0

GEFSNGP_con_prob3kmehi_168.txt.gz
EHI
0 0 0 0 0 0 0 0 0 0 2 6 8 10 16 23 30 42 57 70 78 82 79 74 70 66 63 63 64 63 59 54 50 47 41 31 23 19 17 15 12 11 9 7
0 0 0 0 0 0 0 0 0 1 3 7 9 11 16 24 32 42 55 66 75 80 80 77 74 71 68 67 66 65 63 59 55 49 39 30 23 20 19 17 13 11 8 5
0 0 0 0 0 0 0 1 2 4 7 12 15 17 22 29 36 43 51 59 68 76 80 81 78 73 70 68 67 68 68 66 61 52 40 31 27 25 22 19 15 12 7 3
0 0 0 0 0 0 1 4 8 11 15 19 23 24 25 32 40 47 53 59 65 70 75 79 78 72 67 66 67 69 70 69 62 53 42 36 34 31 26 22 19 15 10 6
0 0 0 0 0 1 3 8 15 21 23 24 23 21 25 35 42 48 57 64 66 66 70 76 77 73 69 68 69 70 69 66 59 51 43 39 36 32 28 24 22 19 13 10
0 0 1 2 3 3 5 13 23 28 28 26 23 23 31 40 43 47 56 63 65 66 71 78 79 76 73 70 68 67 64 59 53 47 42 38 34 30 27 25 22 19 16 14
0 0 3 8 9 9 16 27 35 35 33 32 30 33 40 45 46 49 53 58 62 66 73 78 79 76 73 69 65 62 58 52 46 43 39 36 32 29 26 24 22 20 18 16
2 3 9 17 20 23 34 46 47 43 41 40 38 40 45 48 50 52 54 56 59 63 68 73 73 70 68 66 64 61 57 51 45 41 37 34 32 29 24 22 22 21 18 15
7 10 17 25 30 34 43 51 50 47 46 44 42 43 48 52 53 53 53 53 54 55 58 60 62 60 59 59 60 59 57 53 46 39 35 32 30 25 21 20 20 19 16 13
14 16 21 25 29 33 38 43 46 46 45 44 43 45 49 52 53 51 50 48 47 46 46 46 47 48 49 49 50 51 52 48 41 35 31 29 25 21 17 16 16 16 15 14
15 17 19 20 21 24 27 32 36 37 37 37 38 40 42 43 45 44 43 42 40 38 37 36 37 38 39 39 41 44 44 39 33 30 28 26 21 17 13 11 10 10 11 11
12 14 16 16 16 15 16 19 23 25 25 26 28 29 30 31 32 32 33 34 33 32 32 33 33 33 33 34 35 37 35 29 26 26 26 24 20 15 10 6 3 3 4 4
8 10 12 12 10 9 9 10 13 17 17 17 19 21 22 22 21 21 21 22 23 24 27 29 29 28 28 28 29 28 24 22 21 22 22 21 18 13 8 3 0 0 0 0
4 5 7 6 4 3 4 5 8 12 12 12 13 17 19 18 17 16 14 13 14 17 19 21 22 21 20 19 20 19 16 14 16 17 17 15 12 10 6 3 1 0 0 0
1 1 2 2 1 0 1 3 5 7 8 7 9 13 15 15 15 15 12 10 10 12 13 14 13 12 11 9 10 11 11 9 10 11 10 8 6 4 4 3 1 0 0 0
0 0 0 0 0 0 0 1 2 2 3 3 5 8 10 11 11 13 13 10 10 10 9 8 6 5 4 4 4 6 6 5 5 5 4 3 1 1 2 2 1 1 1 0
0 0 0 0 0 0 0 0 0 0 0 1 3 4 6 8 9 11 11 9 8 7 6 3 2 1 1 2 2 2 2 1 1 1 1 1 0 0 1 1 1 1 1 1
0 0 0 0 0 0 0 0 0 0 1 2 2 2 3 5 7 9 8 6 5 5 4 2 1 0 0 1 1 1 0 0 0 0 0 0 0 0 0 0 0 1 1 0
0 0 0 0 0 0 0 0 0 0 1 1 1 1 2 2 3 5 5 4 3 2 3 2 1 0 0 0 0 0 0 0 0 0 0 0 0 0 0 0 0 0 0 0
0 0 0 0 1 1 1 0 0 0 0 1 1 1 1 1 1 1 1 2 1 2 3 3 1 1 0 0 0 0 0 0 0 0 0 0 0 0 0 0 0 0 0 0
0 0 0 0 1 1 1 0 0 0 0 0 1 1 0 0 0 0 0 1 2 2 3 3 2 1 0 0 0 0 0 0 0 0 0 0 0 0 0 0 0 0 0 0
0 0 0 0 0 0 0 0 0 0 0 0 0 0 0 0 0 0 1 2 2 2 2 3 2 1 0 0 0 0 0 0 0 0 0 0 0 0 0 0 0 0 0 0
0 0 0 0 0 0 0 0 0 0 0 0 0 0 0 0 0 0 1 2 2 1 1 2 1 0 0 0 0 0 0 0 0 0 0 0 0 0 0 0 0 0 0 0
0 0 0 0 0 0 0 0 0 0 0 0 0 0 0 0 0 0 0 1 1 0 0 0 0 0 0 0 0 0 0 0 0 0 0 0 0 0 0 0 0 0 0 0
0 0 0 0 0 0 0 0 0 0 0 0 0 0 0 0 0 0 0 0 0 0 0 0 0 0 0 0 0 0 0 0 0 0 0 0 0 0 0 0 0 0 0 0
0 0 0 0 0 0 0 0 0 0 0 0 0 0 0 0 0 0 0 0 0 0 0 0 0 0 0 0 0 0 0 0 0 0 0 0 0 0 0 0 0 0 0 0
0 0 0 0 0 0 0 0 0 0 0 0 0 0 0 0 0 0 0 0 0 0 0 0 0 0 0 0 0 0 0 0 0 0 0 0 0 0 0 0 0 0 0 0

GEFSNGP_con_prob3kmehi_174.txt.gz
EHI
0 0 0 0 0 0 0 0 0 1 5 13 17 18 23 29 37 46 58 71 81 88 93 94 93 90 86 84 84 84 82 79 76 70 65 60 55 50 42 31 27 29 27 22
0 0 0 0 0 0 0 0 0 2 7 13 17 22 27 32 38 47 57 68 80 90 95 96 95 91 87 86 86 85 82 80 77 73 69 64 57 51 44 37 33 33 28 21
0 0 0 0 0 0 0 1 1 4 11 17 23 30 39 44 47 53 60 69 80 89 94 96 95 90 86 85 84 82 80 79 78 76 73 68 61 54 49 42 38 35 28 22
0 0 0 0 1 1 1 3 6 10 17 24 30 39 50 57 59 62 69 75 80 85 90 93 93 89 84 82 82 81 80 80 80 78 75 70 65 59 52 45 39 34 29 24
0 0 0 1 1 2 3 7 13 21 26 29 33 40 52 61 65 70 75 78 79 82 85 89 91 90 86 83 84 84 82 82 82 81 76 72 68 60 52 46 41 35 30 28
0 0 1 2 2 2 6 14 24 32 35 37 41 46 53 60 67 73 75 75 76 78 81 85 88 89 87 86 86 85 83 83 83 80 75 71 66 59 52 47 42 37 32 30
0 0 3 6 7 9 19 33 42 44 46 51 56 58 58 61 66 71 74 73 74 76 78 79 82 85 86 86 84 82 81 82 79 73 68 66 63 58 53 47 42 38 34 32
4 7 13 20 23 30 43 54 57 55 54 58 61 60 60 62 63 66 69 70 70 72 73 72 73 77 80 81 78 75 75 75 72 66 61 59 60 58 54 48 41 36 32 29
15 20 27 33 38 47 56 61 59 55 53 53 54 56 58 61 61 61 62 64 65 66 66 66 66 67 69 71 69 66 66 68 66 62 57 56 56 54 49 44 36 31 27 24
26 30 33 35 37 43 49 52 50 48 46 46 49 54 57 58 57 56 57 59 60 60 60 60 60 60 60 61 61 59 60 62 62 59 55 52 48 43 38 33 28 25 23 22
29 29 31 31 29 31 35 38 40 41 40 41 45 49 52 54 53 51 53 55 55 54 53 53 55 57 56 56 56 54 54 55 55 53 48 42 36 29 23 20 18 17 17 18
24 24 26 26 24 23 24 27 32 34 34 36 39 42 45 47 47 46 47 47 46 45 44 45 48 50 50 50 49 49 48 46 45 44 40 34 28 22 14 10 8 7 7 8
19 19 19 18 16 16 18 21 25 27 27 28 29 32 35 37 39 39 39 37 35 35 35 35 38 39 40 42 43 43 41 36 34 33 31 27 24 20 14 8 4 2 1 1
14 12 11 10 9 10 12 14 16 17 17 16 17 19 22 26 28 29 30 27 25 25 25 25 27 29 31 33 35 35 33 28 25 24 22 20 20 19 15 11 8 6 3 1
6 6 6 5 5 5 7 8 9 9 8 6 7 10 12 15 17 19 20 18 16 15 16 16 16 20 24 25 25 26 24 19 16 15 14 14 15 15 13 11 9 7 4 2
1 2 2 3 2 2 2 3 4 4 4 3 4 6 8 9 11 12 12 12 12 11 11 10 10 12 15 17 17 16 13 9 7 7 8 8 9 9 9 8 6 4 2 2
0 1 1 1 0 0 0 1 1 3 3 3 3 5 6 7 8 8 9 10 11 11 9 8 7 7 8 9 10 7 4 2 1 2 3 4 5 6 6 6 4 2 1 1
0 0 0 0 0 0 0 0 1 2 3 3 3 4 5 6 6 6 9 10 11 10 9 7 5 4 4 4 4 2 0 0 0 1 2 3 4 4 4 4 3 2 1 0
0 0 0 0 0 0 0 0 0 1 2 3 4 5 5 5 4 5 8 10 10 10 8 6 4 3 3 2 1 0 0 0 0 0 1 1 2 3 3 2 2 1 0 0
0 0 0 0 0 0 0 0 1 2 3 4 5 7 6 4 2 4 7 9 9 10 8 6 4 3 3 2 0 0 0 0 0 0 0 0 0 1 1 1 1 0 0 0
0 0 0 0 0 0 0 0 1 2 3 3 4 6 6 4 3 5 7 8 7 8 7 5 3 3 2 1 0 0 0 0 0 0 0 0 0 0 0 0 0 0 0 0
0 0 0 0 1 0 0 0 0 1 1 1 3 5 7 6 5 5 6 7 6 6 5 4 2 1 1 1 1 0 0 0 0 0 0 0 0 0 0 0 0 0 0 0
0 0 0 0 1 1 1 1 0 0 1 1 3 6 7 7 6 5 5 6 5 3 3 2 1 0 0 1 1 1 0 0 0 0 0 0 0 0 0 0 0 0 0 0
0 0 0 0 0 1 1 1 0 0 0 1 2 4 5 5 4 3 3 3 2 1 1 1 0 0 0 1 1 1 0 0 0 0 0 0 0 0 0 0 0 0 0 0
0 0 0 0 0 1 1 0 0 0 0 0 1 1 1 1 1 1 1 1 0 0 0 0 0 0 0 0 0 0 0 0 0 0 0 0 0 0 0 0 0 0 0 0
0 0 0 0 0 0 0 0 0 0 0 0 0 0 0 0 0 0 0 0 0 0 0 0 0 0 0 0 0 0 0 0 0 0 0 0 0 0 0 0 0 0 0 0
0 0 0 0 0 0 0 0 0 0 0 0 0 0 0 0 0 0 0 0 0 0 0 0 0 0 0 0 0 0 0 0 0 0 0 0 0 0 0 0 0 0 0 0